| time (UTC) | temp C | wind direction | speed KPH | gust KPH | rain 1hr cm | rain 24hr cm | rain mn cm | humidity % | barometer mb |
| 20260905031929 | 23 | 232 | 1.6 | 6.4 | 0.00 | 4.37 | 2.72 | 100 | 1010.8 |
| 20260905030413 | 23 | 314 | 1.6 | 6.4 | 0.00 | 4.37 | 2.72 | 100 | 1010.9 |
| 20260905024912 | 23 | 211 | 1.6 | 6.4 | 0.00 | 4.37 | 2.72 | 100 | 1011.1 |
| 20260905023406 | 23 | 198 | 1.6 | 4.8 | 0.00 | 4.37 | 2.72 | 100 | 1011.1 |
| 20260905021905 | 23 | 195 | 0.0 | 0.0 | 0.00 | 4.37 | 2.72 | 100 | 1010.8 |
| 20260905021110 | 23 | 195 | 0.0 | 0.0 | 0.00 | 4.37 | 2.72 | 100 | 1010.7 |
| 20260905015545 | 23 | 216 | 0.0 | 0.0 | 0.00 | 4.37 | 2.72 | 100 | 1010.8 |
| 20260905013355 | 23 | 217 | 0.0 | 0.0 | 0.00 | 4.37 | 2.72 | 100 | 1010.7 |
| 20260905011854 | 23 | 217 | 0.0 | 0.0 | 0.00 | 4.37 | 2.72 | 100 | 1010.2 |
| 20260905010350 | 23 | 204 | 0.0 | 6.4 | 0.00 | 4.37 | 2.72 | 100 | 1010.1 |
| 20260905004840 | 23 | 273 | 1.6 | 3.2 | 0.00 | 4.37 | 2.72 | 100 | 1010.0 |
| 20260905003339 | 23 | 271 | 1.6 | 9.7 | 0.00 | 4.37 | 2.72 | 100 | 1009.9 |
| 20260905001841 | 23 | 226 | 1.6 | 9.7 | 0.00 | 4.37 | 2.72 | 100 | 1010.1 |
| 20260905000333 | 24 | 221 | 1.6 | 8.0 | 0.00 | 4.37 | 2.72 | 100 | 1010.1 |
| 20260904235527 | 24 | 200 | 1.6 | 6.4 | 0.00 | 4.37 | 2.72 | 100 | 1010.3 |
| 20260904233313 | 24 | 294 | 0.0 | 3.2 | 0.00 | 4.37 | 2.72 | 100 | 1010.2 |
| 20260904231810 | 24 | 277 | 0.0 | 4.8 | 0.00 | 4.37 | 2.72 | 100 | 1009.9 |
| 20260904230305 | 24 | 176 | 0.0 | 6.4 | 0.00 | 4.37 | 2.72 | 100 | 1009.9 |
| 20260904224759 | 24 | 144 | 1.6 | 8.0 | 0.00 | 4.37 | 2.72 | 100 | 1009.9 |
| 20260904223253 | 24 | 192 | 1.6 | 8.0 | 0.00 | 4.37 | 2.72 | 100 | 1010.2 |
| 20260904221756 | 24 | 194 | 1.6 | 9.7 | 0.00 | 4.37 | 2.72 | 100 | 1010.5 |
| 20260904220253 | 24 | 217 | 1.6 | 8.0 | 0.08 | 4.37 | 2.72 | 100 | 1010.7 |
| 20260904214756 | 24 | 300 | 0.0 | 8.0 | 0.13 | 4.37 | 2.72 | 100 | 1010.7 |
| 20260904213945 | 24 | 301 | 1.6 | 6.4 | 0.13 | 4.37 | 2.72 | 99 | 1010.7 |
| 20260904211746 | 25 | 288 | 4.8 | 19.3 | 0.13 | 4.37 | 2.72 | 96 | 1011.1 |
| 20260904210249 | 28 | 98 | 4.8 | 30.6 | 0.05 | 4.29 | 2.64 | 84 | 1011.4 |
| 20260904204744 | 30 | 267 | 1.6 | 8.0 | 0.00 | 4.24 | 2.59 | 79 | 1011.0 |
| 20260904203237 | 31 | 292 | 1.6 | 11.3 | 0.00 | 4.24 | 2.59 | 77 | 1011.2 |
| 20260904201737 | 32 | 34 | 0.0 | 1.6 | 0.00 | 4.24 | 2.59 | 74 | 1011.0 |
| 20260904200950 | 32 | 278 | 0.0 | 3.2 | 0.00 | 4.24 | 2.59 | 73 | 1010.7 |
| 20260904194728 | 32 | 277 | 1.6 | 8.0 | 0.00 | 4.24 | 2.59 | 72 | 1010.5 |
| 20260904193224 | 32 | 252 | 4.8 | 14.5 | 0.00 | 4.24 | 2.59 | 72 | 1010.9 |
| 20260904191722 | 33 | 267 | 1.6 | 8.0 | 0.00 | 4.24 | 2.59 | 71 | 1010.7 |
| 20260904190222 | 33 | 281 | 3.2 | 12.9 | 0.00 | 4.24 | 2.59 | 69 | 1011.0 |
| 20260904184723 | 33 | 261 | 1.6 | 14.5 | 0.00 | 4.24 | 2.59 | 71 | 1011.4 |
| 20260904183221 | 32 | 276 | 3.2 | 16.1 | 0.00 | 4.24 | 2.59 | 70 | 1011.6 |
| 20260904181715 | 32 | 267 | 3.2 | 14.5 | 0.00 | 4.24 | 2.59 | 70 | 1011.8 |
| 20260904180212 | 32 | 285 | 1.6 | 11.3 | 0.00 | 4.24 | 2.59 | 71 | 1011.8 |
| 20260904174712 | 32 | 308 | 1.6 | 14.5 | 0.00 | 4.24 | 2.59 | 71 | 1011.9 |
| 20260904173213 | 31 | 270 | 4.8 | 17.7 | 0.00 | 4.24 | 2.59 | 71 | 1012.1 |
| 20260904171706 | 31 | 283 | 4.8 | 17.7 | 0.00 | 4.24 | 2.59 | 72 | 1012.1 |
| 20260904170207 | 30 | 316 | 4.8 | 19.3 | 0.00 | 4.24 | 2.59 | 72 | 1012.1 |
| 20260904164701 | 30 | 271 | 4.8 | 16.1 | 0.00 | 4.24 | 2.59 | 75 | 1012.3 |
| 20260904163158 | 30 | 275 | 4.8 | 16.1 | 0.00 | 4.24 | 2.59 | 78 | 1012.5 |
| 20260904161655 | 29 | 267 | 4.8 | 14.5 | 0.00 | 4.24 | 2.59 | 81 | 1012.7 |
| 20260904160158 | 29 | 271 | 4.8 | 14.5 | 0.00 | 4.24 | 2.59 | 81 | 1012.8 |
| 20260904154654 | 29 | 296 | 3.2 | 14.5 | 0.00 | 4.24 | 2.59 | 82 | 1012.8 |
| 20260904153152 | 28 | 299 | 6.4 | 16.1 | 0.00 | 4.24 | 2.59 | 83 | 1012.7 |
| 20260904151653 | 28 | 307 | 6.4 | 19.3 | 0.00 | 4.24 | 2.59 | 85 | 1012.8 |
| 20260904150152 | 27 | 283 | 6.4 | 19.3 | 0.00 | 4.24 | 2.59 | 86 | 1013.0 |
| 20260904144652 | 27 | 268 | 6.4 | 19.3 | 0.00 | 4.24 | 2.59 | 90 | 1012.9 |
| 20260904143156 | 26 | 230 | 6.4 | 16.1 | 0.00 | 4.24 | 2.59 | 92 | 1013.0 |
| 20260904141649 | 26 | 256 | 3.2 | 12.9 | 0.00 | 4.24 | 2.59 | 99 | 1012.9 |
| 20260904140857 | 25 | 302 | 3.2 | 9.7 | 0.00 | 4.24 | 2.59 | 100 | 1013.0 |
| 20260904135341 | 24 | 317 | 1.6 | 11.3 | 0.00 | 4.24 | 2.59 | 100 | 1012.8 |
| 20260904133148 | 23 | 285 | 1.6 | 9.7 | 0.00 | 4.24 | 2.59 | 100 | 1012.8 |
| 20260904132347 | 23 | 204 | 1.6 | 8.0 | 0.00 | 4.24 | 2.59 | 100 | 1012.6 |
| 20260904130148 | 23 | 289 | 1.6 | 8.0 | 0.00 | 4.24 | 2.59 | 100 | 1013.0 |
| 20260904124643 | 23 | 247 | 0.0 | 3.2 | 0.00 | 4.24 | 2.59 | 100 | 1013.1 |
| 20260904123143 | 22 | 204 | 0.0 | 3.2 | 0.00 | 4.24 | 2.59 | 100 | 1013.1 |
| 20260904121634 | 22 | 165 | 0.0 | 3.2 | 0.00 | 4.24 | 2.59 | 100 | 1012.8 |
| 20260904120134 | 22 | 45 | 0.0 | 1.6 | 0.00 | 4.24 | 2.59 | 100 | 1012.9 |
| 20260904115329 | 22 | 45 | 0.0 | 1.6 | 0.00 | 4.24 | 2.59 | 100 | 1012.9 |
| 20260904113546 | 21 | 45 | 0.0 | 1.6 | 0.00 | 4.24 | 2.59 | 100 | 1012.5 |
| 20260904113502 | 21 | 45 | 0.0 | 1.6 | 0.00 | 4.24 | 2.59 | 100 | 1012.6 |
| 20260904113408 | 21 | 45 | 0.0 | 1.6 | 0.00 | 4.24 | 2.59 | 100 | 1012.3 |
| 20260904113131 | 21 | 45 | 0.0 | 0.0 | 0.00 | 4.24 | 2.59 | 100 | 1012.7 |
| 20260904113026 | 21 | 45 | 0.0 | 1.6 | 0.00 | 4.24 | 2.59 | 100 | 1012.7 |
| 20260904093034 | 21 | 184 | 0.0 | 3.2 | 0.00 | 4.24 | 2.59 | 100 | 1011.1 |
| 20260904091532 | 21 | 184 | 0.0 | 0.0 | 0.00 | 4.24 | 2.59 | 100 | 1011.3 |
| 20260904090021 | 21 | 184 | 0.0 | 1.6 | 0.00 | 4.24 | 2.59 | 100 | 1011.5 |
| 20260904084519 | 21 | 184 | 0.0 | 0.0 | 0.00 | 4.24 | 2.59 | 100 | 1011.6 |
| 20260904083012 | 21 | 184 | 0.0 | 0.0 | 0.00 | 4.24 | 2.59 | 100 | 1011.5 |
| 20260904081502 | 21 | 184 | 0.0 | 0.0 | 0.00 | 4.24 | 2.59 | 100 | 1011.5 |
| 20260904075954 | 21 | 184 | 0.0 | 0.0 | 0.00 | 4.24 | 2.59 | 100 | 1011.7 |
| 20260904075151 | 21 | 184 | 0.0 | 1.6 | 0.00 | 4.24 | 2.59 | 100 | 1011.7 |
| 20260904073639 | 21 | 184 | 0.0 | 0.0 | 0.00 | 4.24 | 2.59 | 100 | 1011.9 |
| 20260904071435 | 21 | 184 | 0.0 | 1.6 | 0.00 | 4.24 | 2.59 | 100 | 1012.0 |
| 20260904065926 | 21 | 184 | 0.0 | 3.2 | 0.00 | 4.24 | 2.59 | 100 | 1012.0 |
| 20260904064425 | 21 | 82 | 0.0 | 3.2 | 0.00 | 4.24 | 2.59 | 100 | 1011.9 |
| 20260904062916 | 21 | 78 | 0.0 | 3.2 | 0.00 | 4.24 | 2.59 | 100 | 1011.4 |
| 20260904061415 | 21 | 90 | 0.0 | 3.2 | 0.03 | 4.24 | 2.59 | 100 | 1011.2 |
| 20260904055913 | 21 | 193 | 0.0 | 3.2 | 0.13 | 4.24 | 2.59 | 100 | 1011.1 |
| 20260904054404 | 21 | 194 | 1.6 | 8.0 | 0.58 | 4.24 | 2.59 | 100 | 1011.1 |
| 20260904053546 | 21 | 187 | 3.2 | 14.5 | 1.24 | 4.24 | 2.59 | 100 | 1011.3 |
| 20260904052050 | 21 | 206 | 1.6 | 11.3 | 1.93 | 4.22 | 2.57 | 100 | 1012.1 |
| 20260904045901 | 21 | 56 | 0.0 | 1.6 | 2.51 | 4.11 | 2.49 | 100 | 1012.3 |
| 20260904044401 | 21 | 56 | 0.0 | 3.2 | 2.77 | 3.66 | 2.03 | 100 | 1013.1 |
| 20260904042902 | 21 | 342 | 4.8 | 16.1 | 2.82 | 3.00 | 1.37 | 100 | 1013.8 |
| 20260904041353 | 21 | 299 | 9.7 | 24.1 | 2.29 | 2.29 | 0.64 | 100 | 1015.6 |
| 20260904040545 | 21 | 283 | 17.7 | 69.2 | 1.55 | 1.55 | 1.60 | 100 | 1014.2 |
| 20260904035052 | 23 | 269 | 11.3 | 67.6 | 0.89 | 0.89 | 0.91 | 98 | 1015.3 |
| 20260904032851 | 27 | 234 | 9.7 | 59.5 | 0.18 | 0.18 | 0.20 | 93 | 1012.8 |